Погода в Аякучо

Перу     13°09′55″S   74°13′23″W
темп.,
°C
ветер,
м/с
пор.,
м/с
влажн.,
%
обл.,
%
осадки,
мм/ч
давл.,
гПа
погр.,
м
24 января, вс
вс2401:00+6с019363 0.3 101846
04:00+6ссв119139 0.0 101778
07:00+7ююв118567 0.1 1018188
10:00+11св226781 0.1 1017826
13:00+15ссв335674 0.5 10141263
16:00+14ссв446570 3.1 1012941
19:00+10св338082 4.3 1015226
22:00+8ссв1287100 0.2 101898
25 января, пн
пн2501:00+7всв1191100 0.4 1017112
04:00+6св119699 0.1 101632
07:00+8ссз118784 0.1 1018217
10:00+12ссв336967 0.3 1016826
13:00+16ссв335245 0.4 10121370
16:00+16св325221 0.4 10101437
19:00+12ю238056 6.4 101369
22:00+9ссз2289100 4.6 1017166
26 января, вт
вт2601:00+7с3396100 13.1 1016221
04:00+7ссз1195100 4.8 1016124
07:00+8ссв1192100 4.8 1017162
10:00+12с217077 0.4 1016798
13:00+15ссв226188 2.3 10121054
16:00+16св2256100 1.6 10101194
19:00+12ююв227499 5.8 101433
22:00+9сз3388100 2.8 1017136
27 января, ср
ср2701:00+7зюз0195100 3.3 101678
04:00+7ю1192100 0.0 101538
07:00+8ююв0178100 0.0 1017138
10:00+13ссв216093 0.1 10161052
13:00+17св324667 0.4 10121639
16:00+16всв335759 0.8 10101051
19:00+11с238278 2.0 101360
22:00+10с128891 0.6 1016106
28 января, чт
чт2801:00+9ссв229096 1.8 1016196
04:00+8с1194100 0.9 1015101
07:00+8ссв1191100 1.0 1016165
10:00+12с327285 0.2 1014817
13:00+16св225577 0.6 10111372
16:00+16юв115481 1.9 10091063
19:00+11в148190 6.3 101293
22:00+8зсз0189100 0.9 101667